Weather History for Kalispell, MT

Change the Weather History Date:

Thursday, February 21, 2013

  Actual Average Record
Temperature  
Mean Temperature 28 °F 28 °F  
Max Temperature 35 °F 37 °F 56 °F (1995)
Min Temperature 20 °F 19 °F -17 °F (1918)
Degree Days  
Heating Degree Days 37 37  
Month to date heating degree days 690 807  
Since 1 July heating degree days 5063 5598  
Cooling Degree Days 0 0  
Month to date cooling degree days 0 0  
Year to date cooling degree days 0 0  
Moisture  
Dew Point 24 °F    
Average Humidity 76    
Maximum Humidity 96    
Minimum Humidity 56    
Precipitation  
Precipitation T in 0.04 in 0.43 in (1914)
Month to date precipitation 0.13 0.72  
Year to date precipitation 1.00 2.05  
Snow  
Snow T in - - ()
Month to date snowfall 1.3  
Year to date snowfall 7.3  
Since 1 July snowfall 16.1  
Snow Depth T in    
Sea Level Pressure  
Sea Level Pressure 29.99 in    
Wind  
Wind Speed 5 mph (South)    
Max Wind Speed 17 mph    
Max Gust Speed 43 mph    
Visibility 10 miles    
Events Snow    
T = Trace of Precipitation, MM = Missing Value Source: NWS Daily Summary

Daily Weather History Graph

Daily Weather History Graph

Search for Another Location

Airport:

Trip Planner

Search our weather history database for the weather conditions in past years. The results will help you decide how hot, cold, wet, or windy it might be!

Date:

Astronomy

Feb. 21, 2013 Rise Set
Actual Time 7:32 AM MST 6:09 PM MST
Civil Twilight 7:01 AM MST 6:40 PM MST
Nautical Twilight 6:24 AM MST 7:17 PM MST
Astronomical Twilight 5:48 AM MST 7:53 PM MST
Moon 2:15 PM MST 4:53 AM MST
Length of Visible Light 11h 39m
Length of Day
10h 36m
Waxing Gibbous, 84% of the Moon is Illuminated
Feb 21
Waxing Gibbous
Feb 25
Full
Mar 4
Last Quarter
Mar 11
New
Mar 19
First Quarter

Hourly Weather History & Observations

Time (MST) Temp. Windchill Dew Point Humidity Pressure Visibility Wind Dir Wind Speed Gust Speed Precip Events Conditions
12:55 AM 25.0 °F 20.7 °F 23.0 °F 92% 29.98 in 10.0 mi NNE 3.5 mph - N/A   Overcast
1:55 AM 24.1 °F - 21.9 °F 91% 29.99 in 10.0 mi Calm Calm - N/A   Overcast
2:55 AM 21.9 °F - 19.9 °F 92% 30.00 in 10.0 mi Calm Calm - N/A   Overcast
3:55 AM 21.9 °F - 19.9 °F 92% 30.00 in 10.0 mi Calm Calm - N/A   Scattered Clouds
4:55 AM 21.9 °F - 19.9 °F 92% 30.01 in 10.0 mi Calm Calm - N/A   Overcast
5:55 AM 23.0 °F - 21.0 °F 92% 30.03 in 10.0 mi Calm Calm - N/A   Overcast
6:55 AM 24.1 °F - 21.9 °F 91% 30.03 in 10.0 mi Calm Calm - N/A   Overcast
7:55 AM 25.0 °F - 21.9 °F 88% 30.04 in 10.0 mi Calm Calm - N/A   Overcast
8:55 AM 27.0 °F 21.6 °F 23.0 °F 85% 30.04 in 10.0 mi South 4.6 mph - N/A   Overcast
9:55 AM 30.9 °F 26.2 °F 23.0 °F 72% 30.04 in 10.0 mi SSE 4.6 mph - N/A   Scattered Clouds
10:55 AM 33.1 °F 26.1 °F 21.0 °F 61% 30.02 in 10.0 mi SSE 8.1 mph - N/A   Overcast
11:55 AM 32.0 °F 23.0 °F 19.9 °F 61% 30.02 in 10.0 mi South 11.5 mph - N/A   Overcast
12:55 PM 33.1 °F 25.5 °F 21.0 °F 61% 30.01 in 10.0 mi South 9.2 mph - N/A   Overcast
1:55 PM 34.0 °F 25.0 °F 21.0 °F 59% 29.98 in 10.0 mi SSW 12.7 mph - N/A   Overcast
2:55 PM 35.1 °F 29.3 °F 21.0 °F 57% 29.96 in 10.0 mi SSW 6.9 mph - N/A   Overcast
3:55 PM 34.0 °F 26.6 °F 23.0 °F 64% 29.97 in 10.0 mi SSW 9.2 mph - N/A   Overcast
4:55 PM 32.0 °F 25.6 °F 25.0 °F 75% 29.97 in 10.0 mi SSW 6.9 mph - N/A   Overcast
5:55 PM 30.9 °F 25.2 °F 26.1 °F 82% 29.96 in 10.0 mi SSE 5.8 mph - N/A   Overcast
6:31 PM 30.2 °F 20.8 °F 28.4 °F 93% 29.87 in 7.0 mi South 11.5 mph 19.6 mph 0.00 in Snow Light Snow
6:55 PM 30.0 °F 20.5 °F 28.0 °F 92% 29.96 in 7.0 mi South 11.5 mph - 0.00 in Snow Light Snow
7:07 PM 30.2 °F 20.8 °F 28.4 °F 93% 29.87 in 7.0 mi South 11.5 mph - 0.00 in   Overcast
7:55 PM 30.9 °F 22.8 °F 28.0 °F 89% 29.97 in 9.0 mi South 9.2 mph - 0.00 in   Overcast
8:55 PM 30.9 °F 24.3 °F 28.0 °F 89% 29.97 in 10.0 mi South 6.9 mph - N/A   Overcast
9:55 PM 30.9 °F 25.2 °F 27.0 °F 85% 29.97 in 10.0 mi SE 5.8 mph - N/A   Overcast
10:55 PM 30.9 °F 27.5 °F 27.0 °F 85% 29.98 in 10.0 mi SW 3.5 mph - N/A   Overcast
11:55 PM 30.0 °F 25.2 °F 26.1 °F 85% 29.98 in 10.0 mi South 4.6 mph - N/A   Overcast